User: anonymous   Login
Location: Buttermere
(51.3333°N, 1.5167°W)
Time: 10:32:59
(UTC+00:00)
Language:

Cosmos 2150 Rocket - Orbit

View from above orbital plane
View from above orbital plane
View from above satellite
View from above satellite

Ground track
Ground track

The orbit data is extracted from the following two-line orbital elements,

1 21419U 91041B   21166.90356582  .00000110  00000-0  48278-4 0  9991
2 21419  74.0380 149.3933 0039731  80.0034 280.5598 14.34005957569365
Epoch (UTC): 15 June 2021 21:41:08
Eccentricity: 0.0039731
inclination: 74.0380°
perigee height: 750 km
apogee height: 807 km
right ascension of ascending node: 149.3933°
argument of perigee: 80.0034°
revolutions per day: 14.34005957
mean anomaly at epoch: 280.5598°
orbit number at epoch: 56936

The dashed part of the orbit path shows where the satellite is in the earth's shadow,  

DLR